Location: Andrezel
(48.6105°N, 2.8138°E)
Time: 22:37:50
(UTC+00:00)

Daily predictions for brighter satellites

Satellite Brightness Start Highest point End
(mag) Time Altitude Azimuth Time Altitude Azimuth Time Altitude Azimuth
Cosmos 1697 Rocket 3.1 17:42:01 10° SW 17:47:37 68° WNW 17:53:15 10° NNE
SL-08 R/B 4.2 17:43:41 10° N 17:48:31 57° WNW 17:53:21 10° SSW
Okean 2 3.5 17:45:14 10° N 17:49:24 83° W 17:53:32 10° S
SL-14 R/B 3.4 17:49:35 10° N 17:53:31 56° ENE 17:57:27 10° SSE
MOS 1-B 4.5 17:48:57 10° SE 17:54:36 56° ENE 18:00:17 10° N
Cosmos 1733 3.1 17:51:25 10° S 17:55:07 66° E 17:58:50 10° NNE
MINOTAUR 4 R/B 3.9 17:56:04 10° NNE 17:59:34 84° ESE 18:03:02 10° SSW
Cosmos 540 Rocket 4.4 17:56:13 10° NNW 18:01:12 54° WSW 18:06:09 10° S
Cosmos 1766 3.9 17:57:58 10° SSE 18:01:32 34° E 18:05:08 10° NNE
Cosmos 1674 Rocket 3.6 17:58:22 10° N 18:02:45 59° ENE 18:07:08 10° SSE
Meteor 2-10 4.2 17:57:30 10° S 18:03:01 61° E 18:08:25 10° NNE
ATLAS 2AS CENTAUR R/B 4.4 17:59:51 10° WNW 18:05:57 26° N 18:11:48 10° NE
YAOGAN 1 2.8 18:02:34 10° SE 18:06:42 47° ENE 18:10:52 10° N
Cosmos 968 Rocket 4.2 18:03:30 10° SSE 18:08:02 30° E 18:12:35 10° NE
Okean O Rocket 2.0 18:06:27 10° SE 18:10:34 43° ENE 18:14:44 10° N
Cosmos 2084 4.3 18:08:29 10° WSW 18:12:08 43° NW 18:15:49 10° NNE
Lacrosse 4 Rocket 3.0 18:10:38 10° SE 18:12:47 14° ESE 18:13:56 13° E
SKYMED 2 3.7 18:09:32 10° NNE 18:13:55 84° WNW 18:18:15 10° SSW
Meteor 2-5 Rocket 4.2 18:09:48 10° N 18:14:57 38° ENE 18:20:05 10° SE
Nadezhda 4 Rocket 4.1 18:09:21 10° SSE 18:15:28 53° E 18:21:34 10° NNE
USA-17 4.5 18:15:25 10° NW 18:18:38 89° NNE 18:22:43 10° SE
Cosmos 2285 Rocket 4.0 18:15:02 10° NNW 18:21:24 71° ENE 18:27:46 10° SSE
PSLV R/B 4.0 18:19:11 10° S 18:22:51 67° WSW 18:26:30 10° NNW
Cosmos 1726 2.0 18:19:58 10° S 18:23:37 80° E 18:27:17 10° NNE
USA 186 3.4 18:22:42 17° E 18:23:42 19° ENE 18:26:09 10° NNE
Cosmos 2322 Rocket 3.1 18:19:11 10° SSE 18:23:52 27° ESE 18:28:33 10° NE
Cosmos 841 Rocket 4.5 18:22:59 10° NNW 18:27:59 49° WSW 18:32:54 10° S
Cosmos 1470 3.5 18:25:04 10° SSE 18:28:22 28° E 18:31:42 10° NNE
CZ-4B R/B 3.2 18:23:40 10° SSE 18:29:03 87° ENE 18:34:37 10° NNW
Cosmos 1378 Rocket 3.7 18:24:56 10° NNW 18:29:19 76° W 18:33:38 10° S
Cosmos 1980 Rocket 2.7 18:24:07 10° SW 18:29:42 63° WNW 18:35:18 10° NNE
Cosmos 1975 Rocket 3.9 18:26:31 10° N 18:30:24 29° ENE 18:33:08 16° ESE
ARGOS Delta rocket 3.9 18:25:55 10° NNE 18:31:13 79° E 18:36:12 10° S
Cosmos 2292 Rocket 3.7 18:33:34 10° S 18:38:29 50° E 18:42:16 10° NNE
Cosmos 1733 Rocket 4.4 18:38:27 10° SSW 18:42:41 43° WNW 18:46:58 10° N
USA 215 3.5 18:37:49 10° NE 18:44:20 72° NNW 18:50:50 10° WSW
COBE Rocket 4.3 18:42:31 10° S 18:47:19 64° W 18:52:02 10° NNW
Cosmos 1844 Rocket 3.0 18:44:05 10° NNW 18:49:37 50° NE 18:52:59 23° ESE
Cosmos 2278 3.9 18:47:25 10° SW 18:53:06 73° WNW 18:58:48 10° NNE
SL-16 R/B 2.2 18:48:19 10° S 18:53:52 61° ESE 18:59:27 10° NE
Cosmos 1570 Rocket 4.1 18:49:41 10° NNW 18:54:58 81° WSW 19:00:12 10° SSE
Landsat 5 4.0 18:51:29 10° NNE 18:55:42 39° E 18:59:52 10° SSE
Cosmos 1092 Rocket 4.0 18:50:45 10° S 18:56:56 62° E 19:03:06 10° NNE
Resurs 01 Rocket 3.1 19:01:19 21° NE 19:01:19 21° NE 19:04:15 10° NNE
DMSP B5D1-3 4.4 18:55:59 10° NNE 19:01:08 88° ESE 19:06:16 10° SSW
SJ-6B 2.8 19:02:07 39° ESE 19:03:05 51° ENE 19:06:48 10° N
Cosmos 2278 Rocket 4.0 19:00:54 10° N 19:04:10 15° NE 19:05:41 14° NE
Cosmos 1437 Rocket 2.7 19:02:15 10° SSW 19:05:58 75° W 19:09:44 10° N
H-2A R/B 3.8 19:07:12 22° NE 19:07:12 22° NE 19:09:28 10° N
Cosmos 2263 Rocket 4.0 19:03:32 10° NW 19:08:31 32° WSW 19:13:28 10° SSW
Meteor 1-24 Rocket 3.5 19:05:05 10° NNW 19:10:25 88° E 19:15:49 10° S
Resurs 1-3 3.8 19:11:26 42° ESE 19:12:14 47° ENE 19:16:27 10° N
SL-4 R/B 3.5 19:11:32 10° WNW 19:15:36 34° SW 19:17:52 22° S
MetOp-A 4.5 19:17:19 28° NE 19:17:19 28° NE 19:20:02 10° N
Cosmos 2084 Rocket 3.3 19:15:02 10° NW 19:18:51 69° SW 19:19:51 46° SSE
USA 267 4.3 19:14:33 10° SSE 19:20:37 39° SW 19:26:42 10° WNW
Okean-O 2.5 19:20:29 42° SE 19:21:54 73° ENE 19:26:20 10° N
CZ-4 R/B 2.8 19:19:22 10° SSW 19:23:17 40° W 19:27:15 10° NNW
Cosmos 1486 Rocket 4.1 19:18:11 10° S 19:23:20 53° ESE 19:28:31 10° NNE
OBJECT-B 2.1 19:24:55 28° NW 19:24:55 28° NW 19:26:23 10° NNW
Cosmos 1844 3.6 19:18:37 10° NNW 19:24:12 73° ENE 19:26:12 41° SE
IGS 5A 3.3 19:24:37 47° SSE 19:25:47 86° ENE 19:29:57 10° NNW
DNEPR-1 R/B 3.8 19:22:45 10° SSW 19:27:23 63° ESE 19:30:36 25° NE
Meteor 1-22 Rocket 4.3 19:22:58 10° SSW 19:28:23 77° WNW 19:34:05 10° N
S3M 4.3 19:23:36 10° N 19:29:29 41° ENE 19:30:10 40° E
Cosmos 773 Rocket 4.4 19:25:35 10° NNW 19:30:40 44° ENE 19:31:00 43° ENE
Cosmos 1300 Rocket 3.4 19:30:15 62° SE 19:30:47 71° E 19:35:08 10° NNE
CSL-04 Debris 4.2 19:28:02 18° S 19:32:04 78° WSW 19:37:30 10° NNW
Cosmos 1627 Rocket 4.5 19:29:55 10° SSW 19:36:02 80° W 19:42:13 10° N
Cosmos 2360 Rocket 2.1 19:32:49 10° SSW 19:38:23 64° ESE 19:43:59 10° NNE
USA 81 4.3 19:33:45 10° N 19:39:01 71° W 19:43:22 15° S
Cosmos 1782 Rocket 4.1 19:34:57 10° SSW 19:39:12 56° WNW 19:43:32 10° N
Cosmos 1025 Rocket 3.6 19:38:51 10° NNW 19:43:05 57° W 19:44:51 32° SSW
Okean O Rocket 4.0 19:43:40 10° SW 19:47:06 22° W 19:50:34 10° NW
Cosmos 1417 Rocket 4.3 19:43:56 10° N 19:50:03 68° ENE 19:51:03 58° SE
Lacrosse 4 Rocket 1.7 19:46:43 10° SW 19:50:17 62° WSW 19:50:17 62° WSW
Cosmos 2026 Rocket 4.3 19:46:40 10° SSW 19:52:39 62° WNW 19:58:41 10° N
USA 186 3.7 19:55:51 30° W 19:55:51 30° W 19:58:50 10° NNW
CSL-04 Rocket 4.2 19:55:05 25° SSW 19:58:05 54° W 20:03:25 10° NNW
ATLAS 2AS CENTAUR R/B 4.0 19:53:04 10° NW 19:59:16 28° NNE 20:01:35 24° NE
MOS 1 4.1 20:01:33 72° E 20:01:38 73° ENE 20:07:19 10° NNW
Cosmos 1553 Rocket 4.1 19:57:29 10° NNW 20:03:51 76° W 20:06:34 37° S
Landsat 7 4.1 20:04:06 57° SW 20:04:33 61° W 20:09:14 10° NNW
deb Chang Zheng 4 4.3 20:05:56 46° NNW 20:05:56 46° NNW 20:08:56 10° NNW
SPOT 1/Viking Rocket 3.6 20:07:54 67° NNE 20:07:54 67° NNE 20:12:25 10° NNW
Cosmos 2322 Rocket 2.8 20:01:55 10° SW 20:07:33 57° WNW 20:13:12 10° NNE
NOSS 3-4 (A) 3.8 20:04:28 10° NW 20:11:12 62° NE 20:12:04 58° ENE
NOSS 3-4 (C) 3.9 20:04:34 10° NW 20:11:18 62° NE 20:12:10 58° ENE
Ariane Rocket 3.9 20:16:26 40° NNE 20:16:26 40° NNE 20:19:52 10° N
NOSS 3-3 (A) 4.0 20:15:36 10° SW 20:30:26 - NE 20:20:03 60° SW
NOSS 3-3 (C) 4.1 20:15:42 10° SW 20:30:32 - NE 20:19:58 56° SW
Aureole 1 Rocket 4.0 20:18:07 10° SSW 20:25:31 85° WNW 20:31:18 10° NNE
USA 215 4.1 20:24:15 31° NE 20:26:53 44° N 20:33:01 10° WNW
USA 281 3.9 20:27:40 39° NE 20:27:40 39° NE 20:33:08 10° NNW
Cosmos 1844 Rocket 4.1 20:28:21 10° NW 20:33:17 31° WSW 20:34:40 28° SW
Resurs 01 Rocket 3.3 20:38:52 32° NW 20:38:52 32° NW 20:41:27 10° NNW
SL-16 R/B 4.0 20:33:29 10° WSW 20:38:22 29° NW 20:43:17 10° NNE
Cosmos 2315 Rocket 4.3 20:32:45 10° N 20:37:56 60° N 20:37:56 60° N
Terra 4.1 20:42:43 17° N 20:42:43 17° N 20:43:53 10° N
Cosmos 1943 Rocket 4.1 20:36:20 10° N 20:38:59 19° NNE 20:38:59 19° NNE
Cosmos 2278 Rocket 3.3 20:43:57 10° NNW 20:47:32 37° N 20:47:32 37° N
Cosmos 2369 Rocket 4.5 20:56:33 10° N 20:58:48 14° NNE 20:58:48 14° NNE
Cosmos 2333 Rocket 4.4 21:18:31 18° NNE 21:18:31 18° NNE 21:19:58 10° NNE
Cosmos 2360 Rocket 4.0 21:18:03 10° WSW 21:22:51 28° NW 21:27:39 10° NNE
ATLAS 2AS CENTAUR R/B 3.8 21:44:27 10° NW 21:49:00 40° NNW 21:49:00 40° NNW
